Lapse_Rate
1.4 1.7 2.1 1.6 1.1 0.8 1.3 0.9 1.5 1.0 0.9 1.5 1.9 2.4 2.6 2.6 2.7 2.6 2.4 2.2 1.9 0.9 0.5 2.4 3.4 2.4 2.7 2.7 2.3 1.6 1.6 2.1 1.8 1.7 1.5 1.3 1.5 0.7 1.4 2.2 3.1 3.6 4.2
1.2 1.4 1.4 1.7 1.1 0.7 1.2 1.5 0.8 0.8 0.5 0.7 1.4 2.1 2.6 2.6 2.8 2.6 2.5 2.4 2.1 0.7 1.1 3.3 4.2 3.1 1.9 1.1 0.1 0.4 -0.3 -0.6 0.7 2.1 1.1 1.4 1.6 1.5 1.1 1.3 2.6 4.2 4.3
0.9 1.2 1.0 0.9 0.6 1.3 1.5 1.0 0.8 0.9 0.8 1.1 1.7 2.2 2.4 2.8 2.7 2.0 1.7 1.7 1.2 1.7 2.3 3.2 3.8 2.2 1.4 0.8 -0.0 -0.8 -1.5 -0.6 -0.7 1.0 2.0 0.5 0.9 0.8 0.9 1.5 2.3 2.3 4.3
0.7 1.0 1.0 0.8 0.8 0.9 0.8 1.0 1.0 1.1 1.3 1.3 1.4 1.9 2.4 2.9 2.9 2.0 0.9 1.4 1.7 2.7 2.7 3.2 2.6 1.9 2.1 0.7 -0.7 -1.6 -1.2 -1.1 0.3 0.8 1.4 1.4 1.4 2.0 0.9 0.7 0.6 1.8 2.6
0.7 0.7 1.0 1.0 0.9 0.8 0.3 0.4 0.6 0.9 1.5 1.5 1.9 2.5 2.9 3.3 2.5 1.4 1.6 1.7 1.4 0.5 1.2 2.3 2.5 3.0 2.1 0.7 -0.9 -1.6 -0.5 -0.3 0.5 1.4 1.8 1.7 1.9 1.7 1.4 0.6 0.4 1.0 2.8
0.7 0.7 1.0 0.6 0.3 0.5 0.6 0.5 0.5 0.9 1.2 1.8 2.4 3.2 3.6 4.6 -0.3 0.2 1.3 0.9 0.5 2.0 2.0 1.7 1.4 2.4 2.0 2.2 2.2 2.9 1.8 1.6 1.9 2.0 2.0 2.6 2.7 2.2 1.2 0.3 0.1 0.6 2.7
0.4 0.8 0.6 0.1 0.3 0.1 0.1 0.1 0.6 0.8 1.5 2.4 3.3 3.7 2.8 0.7 -1.2 -0.9 0.2 0.8 0.2 2.3 1.8 0.8 2.2 1.7 1.2 0.7 2.6 3.4 4.2 4.5 3.6 2.3 3.4 3.1 2.8 2.9 1.5 0.2 1.1 0.8 2.7
0.2 0.1 -0.3 -0.3 -0.1 -0.6 -0.3 0.2 0.5 0.9 1.9 3.1 4.0 2.7 1.2 0.0 -2.0 -1.4 -0.2 1.9 2.1 2.6 0.6 0.8 0.7 -0.1 0.0 0.1 0.5 1.8 2.2 2.5 2.8 3.2 3.0 2.9 2.8 2.4 1.3 0.7 0.7 0.3 2.0
-0.3 -0.7 -0.9 -0.8 -0.9 -0.9 -0.1 0.0 0.5 1.3 2.4 3.3 2.9 2.0 1.2 -0.1 -2.2 -1.1 1.8 2.5 1.7 -0.4 0.1 0.3 0.1 -0.2 0.4 1.0 1.1 1.8 1.8 2.4 4.1 3.9 4.5 5.0 4.7 4.2 3.1 2.5 2.2 2.7 1.8
-0.7 -1.0 -1.7 -1.5 -1.0 -0.9 -0.5 -0.3 0.4 1.5 2.1 2.2 2.1 1.8 0.3 0.6 -2.4 -1.5 1.7 2.2 0.3 -0.9 -1.1 -0.5 0.8 -0.5 -0.2 1.0 1.2 1.4 2.3 2.5 2.2 2.2 2.9 3.1 3.2 3.0 3.0 0.2 0.3 3.3 3.9
-1.3 -1.9 -2.0 -1.5 -1.2 -0.9 -0.9 -0.3 0.2 0.5 1.2 1.9 1.7 1.4 1.2 1.1 -0.9 -1.5 -0.1 2.1 0.3 -0.7 -0.4 -1.3 -1.7 -0.7 -0.6 0.4 0.9 1.3 2.6 0.8 2.6 1.8 1.6 2.2 2.4 0.7 0.7 2.0 1.3 1.1 5.2
-1.8 -1.8 -2.0 -2.0 -0.5 -0.8 -0.4 -0.3 0.2 0.5 1.2 1.6 1.8 0.9 1.0 0.6 -1.6 -1.9 -1.0 -0.1 0.4 0.7 -1.0 -1.8 -1.5 -0.8 -0.2 0.5 0.4 1.0 0.9 1.5 1.2 1.4 1.8 2.4 2.7 1.5 0.8 1.2 2.7 3.1 3.9
-1.6 -1.4 -1.3 -1.1 -0.5 -0.3 -0.3 0.2 0.7 1.2 1.8 2.0 2.2 1.5 1.1 -0.1 -0.1 -2.0 -0.9 -0.7 -0.9 -0.7 -2.0 -1.6 -1.7 -0.9 0.4 0.2 0.4 0.8 1.4 1.3 1.6 1.6 2.0 2.3 2.0 1.7 2.6 1.4 2.2 3.1 3.9
-0.6 -0.7 -0.8 -0.2 0.1 0.1 0.2 1.0 1.0 1.7 2.1 2.4 2.4 2.0 1.6 1.3 0.9 0.8 -0.1 -0.9 -1.2 -0.8 -1.3 -1.9 -0.9 0.1 1.1 0.8 1.1 1.0 1.0 1.3 1.8 1.1 0.7 0.7 0.8 1.1 1.1 0.0 0.7 -0.1 1.7
-1.0 -1.2 -0.9 0.2 1.2 0.8 -0.4 0.1 1.6 1.9 1.4 2.4 2.6 2.8 2.4 2.2 2.0 0.1 -1.2 -0.9 -1.3 -1.3 -2.7 -2.0 -0.9 0.4 1.0 0.9 0.5 0.7 0.4 0.9 1.7 1.0 0.9 0.8 1.3 1.4 1.1 0.5 0.7 -0.0 0.8
-0.4 -0.4 0.2 1.1 0.9 -1.0 -1.3 -1.7 -5.8 -2.5 -3.1 -3.0 -2.2 0.9 2.0 -0.3 -3.0 -3.3 -3.6 -3.6 -4.1 -3.3 -1.5 -1.2 -0.8 0.3 1.1 1.0 1.3 1.1 0.8 1.6 0.9 0.8 0.7 0.6 1.1 1.7 1.8 1.4 0.9 -0.0 0.3
0.9 1.1 0.9 0.1 -0.2 -0.0 0.5 1.6 0.9 -2.7 -6.0 -4.8 -3.3 -3.4 -2.5 -3.5 -4.1 -4.4 -4.0 -4.5 -4.1 -2.0 -0.9 -1.1 -0.8 -0.4 0.3 0.5 1.1 1.7 1.6 0.8 0.4 0.7 0.9 0.5 0.6 1.5 1.9 1.7 1.6 1.6 1.3
1.7 -0.4 1.4 1.2 1.0 0.7 1.7 2.2 2.1 1.7 2.0 0.1 -2.5 -2.4 -5.2 -5.2 -4.9 -4.9 -4.8 -3.2 -0.7 -0.2 -0.4 -1.1 -0.9 -0.5 -0.1 0.2 0.4 1.3 0.2 -0.2 0.2 0.5 0.8 0.6 0.8 1.6 2.1 1.7 1.4 2.0 1.8
1.6 1.8 2.5 2.1 2.0 1.5 2.0 2.4 2.7 2.8 2.5 1.4 -1.1 -3.3 -5.4 -6.0 -5.4 -5.3 -3.4 1.1 0.4 -0.3 -0.6 -0.5 -0.8 -0.7 -0.2 -0.3 0.1 0.5 0.6 0.2 0.2 0.4 0.5 0.6 0.1 0.7 1.2 1.5 1.5 1.7 2.0
2.4 1.6 2.2 2.3 1.8 2.5 2.5 2.6 2.8 2.7 2.5 1.2 1.8 1.0 -2.8 -1.8 -0.6 -0.7 1.7 0.6 0.4 0.4 -0.6 0.0 -1.2 -0.8 -0.0 -0.4 -0.6 -0.1 0.2 0.4 0.2 0.3 0.4 0.5 0.6 0.8 1.3 1.9 2.2 2.1 1.5
3.4 2.5 2.4 1.8 2.1 2.5 2.9 2.9 2.4 2.4 2.3 2.0 1.5 -0.4 -1.8 2.5 0.9 0.3 0.8 0.1 0.6 0.5 -0.5 0.1 -0.6 -0.5 -0.4 -0.4 -0.9 -0.6 0.4 0.4 0.4 0.5 0.1 0.2 0.3 1.2 0.8 1.0 1.3 1.4 1.5
3.4 3.0 2.9 2.5 2.1 2.1 3.1 3.5 2.0 2.6 2.6 2.5 1.2 -1.8 -3.7 3.0 1.6 0.9 0.8 -0.1 0.1 0.1 -0.5 -0.2 -0.3 0.0 0.3 0.4 -0.3 0.1 0.4 0.9 0.1 0.5 0.4 0.4 0.6 0.8 0.7 1.2 1.4 1.9 2.0
3.7 3.6 3.4 3.5 3.3 2.0 2.4 3.0 2.3 2.7 3.0 3.0 0.8 -0.5 -0.4 2.8 1.4 1.1 0.9 -0.5 -0.5 -0.6 -1.2 -0.2 -0.2 -0.9 -0.1 0.7 1.0 0.6 0.8 0.2 0.7 1.3 1.2 0.8 0.4 0.5 0.5 0.8 1.2 1.5 2.2
3.6 4.5 4.5 4.1 3.8 3.5 4.1 2.4 3.4 1.2 3.2 2.9 1.6 1.1 0.6 1.5 0.8 0.9 0.9 -0.6 -0.5 -0.9 -0.6 0.1 0.8 1.1 -0.0 0.4 1.0 1.5 2.9 3.4 3.5 2.6 2.3 1.2 0.7 -0.2 0.4 0.5 0.8 1.6 1.5
2.3 3.3 4.5 4.5 4.6 4.3 4.6 4.1 4.6 3.8 3.7 2.9 2.7 1.9 1.8 1.5 0.6 0.7 0.6 -0.4 -0.0 -0.7 -0.8 0.3 1.1 1.5 1.2 0.9 0.9 1.6 3.4 4.2 4.2 4.1 3.2 2.4 1.1 0.7 1.0 1.7 1.0 0.9 1.1
3.7 2.9 4.3 3.9 4.3 5.1 5.3 4.3 4.8 3.9 4.1 3.7 3.3 2.5 2.3 2.0 0.9 1.0 0.2 0.4 0.6 0.3 -0.4 0.5 1.1 1.6 1.9 1.7 2.4 3.4 3.7 4.2 3.7 4.4 3.7 2.5 1.5 0.7 0.6 1.2 1.1 1.7 1.8
Wind_Speed
13 12 11 10 9 7 9 8 8 6 7 6 6 5 6 7 7 6 6 4 5 4 4 1 4 4 3 4 4 3 2 2 3 2 2 3 3 6 9 15 15 13 8
14 13 12 10 8 8 9 9 7 8 6 7 6 5 6 6 6 6 7 3 3 6 5 3 2 3 7 5 4 5 4 4 4 2 2 3 3 5 5 6 7 10 10
12 12 10 9 8 10 9 7 7 6 7 6 5 6 7 6 7 5 5 1 4 4 4 2 4 7 6 3 4 5 4 4 4 3 3 2 2 3 4 3 4 4 6
12 12 11 10 10 10 9 9 7 6 6 6 6 6 6 7 4 5 5 5 4 4 2 4 6 7 6 6 6 6 3 5 4 4 4 3 2 4 3 3 4 2 3
13 12 12 11 9 8 7 7 7 6 6 6 6 6 8 4 4 6 8 7 7 6 6 7 6 9 12 8 5 4 6 4 4 4 3 3 3 3 4 3 3 5 3
13 13 12 9 8 9 9 8 7 6 7 6 6 8 6 1 13 13 12 9 8 9 9 8 6 10 9 11 11 10 8 5 3 2 1 2 4 3 4 4 3 4 5
13 12 10 9 10 10 8 7 8 8 5 6 7 5 4 7 15 15 15 9 8 8 9 7 7 4 8 7 9 8 5 4 4 4 3 2 3 3 5 5 4 3 3
13 11 9 10 10 7 8 9 7 5 6 6 3 7 8 6 15 15 16 11 9 7 6 7 7 6 6 7 6 4 3 2 3 3 4 3 2 6 4 3 4 6 3
11 11 11 10 9 9 9 9 6 5 5 4 6 9 10 9 13 16 14 10 9 7 5 6 6 6 7 10 7 5 3 3 4 7 9 12 14 15 16 7 10 9 4
9 10 9 10 11 11 10 8 5 4 5 6 7 8 12 12 12 14 12 9 9 5 5 5 7 7 9 9 7 5 4 1 3 5 3 6 10 12 15 10 4 8 8
8 8 9 10 11 10 8 5 6 8 8 8 9 8 9 13 11 14 11 10 9 5 5 4 3 9 9 8 7 5 4 4 5 4 3 3 4 4 5 11 9 3 7
7 7 8 8 8 7 10 8 9 11 11 9 11 8 6 8 10 11 10 11 11 9 6 4 5 8 7 5 5 6 9 7 4 4 4 3 3 4 4 4 5 9 7
7 7 8 8 8 10 11 11 9 10 10 9 9 8 7 5 5 9 14 13 11 6 5 6 9 8 6 7 9 11 8 5 4 4 3 2 2 3 7 5 10 9 7
7 7 6 8 9 8 7 9 9 9 9 9 9 8 8 7 6 6 7 6 12 8 10 6 6 7 6 5 5 5 4 4 4 3 2 1 2 3 4 4 4 4 4
5 6 7 7 9 8 6 5 9 10 12 11 10 10 11 10 9 11 11 8 7 8 8 4 3 3 3 3 4 4 4 4 5 2 3 3 3 3 3 4 4 4 5
5 6 7 7 7 6 6 5 13 4 12 10 18 13 7 13 17 16 14 14 17 15 4 4 3 3 5 4 4 3 2 5 4 4 3 3 3 3 3 3 4 5 5
5 6 6 7 8 8 7 8 8 7 15 4 17 16 16 17 20 17 17 16 17 10 3 4 4 5 4 5 4 4 4 3 4 4 4 4 4 3 3 3 3 4 5
6 9 8 7 7 8 8 8 8 10 9 4 7 6 16 21 21 18 18 14 6 2 3 5 5 5 4 5 4 3 3 4 3 4 4 3 3 3 3 4 3 3 4
6 6 6 6 6 8 8 8 9 9 9 8 4 7 7 15 18 19 19 10 11 6 4 5 4 5 5 5 5 5 5 5 5 5 4 4 4 4 3 3 4 5 4
4 8 9 8 7 8 8 9 8 9 9 9 8 8 8 8 9 10 9 8 7 7 6 6 6 6 5 5 5 5 5 5 5 5 5 4 4 5 4 4 3 3 3
2 5 8 8 9 8 8 9 9 9 9 9 9 9 16 12 12 12 10 8 8 7 6 6 6 6 6 6 5 6 6 5 5 5 5 5 5 4 5 5 4 4 4
3 5 6 8 8 9 9 9 9 9 10 10 7 8 17 9 10 10 10 9 8 8 6 7 7 7 7 8 7 6 6 6 6 6 6 6 5 5 5 4 5 3 2
3 6 7 6 7 8 9 8 10 10 10 10 9 9 12 10 10 10 10 8 8 7 7 7 7 6 11 14 16 13 8 7 7 10 8 6 5 5 5 5 5 3 3
8 5 8 8 8 9 9 9 10 11 11 11 11 11 13 11 10 11 9 8 7 7 10 10 11 11 12 14 16 19 20 21 22 20 18 8 6 6 5 5 6 6 5
5 7 5 5 7 9 9 10 10 11 11 10 11 11 12 10 10 9 9 8 8 8 8 11 14 17 20 20 18 22 24 23 25 23 20 15 9 8 7 7 6 6 6
7 7 7 4 4 7 9 9 10 10 11 11 11 11 12 12 10 10 9 9 9 9 9 11 15 19 22 23 28 30 24 23 22 27 24 15 8 6 5 7 10 7 9
Wind_Direction
194 199 200 201 202 200 217 226 226 226 231 235 232 228 228 249 264 263 248 232 182 140 65 108 43 302 87 65 52 44 37 65 96 335 295 308 323 1 357 352 355 347 347
194 192 197 200 190 195 217 225 205 223 225 236 237 238 240 244 255 228 250 257 52 117 165 168 98 111 73 60 66 46 40 36 107 75 304 318 358 341 335 343 341 349 351
187 189 192 194 189 207 216 214 209 208 226 232 230 227 242 234 236 196 227 116 88 141 160 207 120 108 94 83 76 78 54 63 73 102 355 330 316 338 331 321 323 321 324
185 190 193 193 198 205 211 216 212 202 214 226 232 237 243 252 156 173 136 120 117 113 104 97 103 104 118 112 102 92 93 77 67 63 31 344 318 308 324 304 318 289 281
184 190 198 198 197 200 202 206 211 196 211 219 236 244 248 219 164 139 132 130 117 97 85 91 94 112 119 125 115 126 103 89 72 57 31 349 323 326 337 309 293 298 286
187 197 197 185 180 195 206 202 198 204 209 207 227 241 260 194 135 130 133 129 122 120 108 91 96 108 103 109 125 124 129 120 95 98 16 349 327 301 300 302 291 336 343
188 197 187 181 187 200 195 178 203 208 198 211 231 228 109 112 126 128 125 123 119 120 121 120 109 97 102 103 95 92 88 99 135 145 103 7 340 307 307 309 329 302 281
191 185 179 184 191 176 176 193 206 185 194 207 212 118 119 122 129 123 117 122 117 113 116 117 123 135 140 121 106 85 68 58 101 101 98 88 50 340 329 280 289 295 295
189 185 183 181 176 173 190 199 197 169 169 163 138 128 127 134 131 133 125 120 108 99 103 112 135 148 159 125 123 119 74 17 37 133 107 82 58 38 27 17 10 7 343
187 192 177 174 179 186 195 184 155 155 136 126 120 129 137 138 140 129 129 127 117 117 98 102 129 140 135 134 142 144 108 352 82 97 56 41 43 33 30 44 356 21 9
179 175 178 183 187 187 167 156 143 129 124 121 117 120 131 144 149 136 141 136 138 140 132 121 125 129 131 148 150 155 145 146 87 105 98 24 12 11 13 27 28 20 24
163 171 177 177 180 164 158 145 140 136 130 131 124 113 121 136 138 137 126 133 141 137 144 148 135 118 129 155 156 150 115 101 88 80 77 43 7 342 349 345 10 32 25
160 178 178 170 167 161 154 153 145 144 142 142 136 134 134 126 131 126 129 128 121 113 136 140 120 118 111 78 100 117 105 96 91 74 76 62 9 330 358 16 28 21 356
175 174 162 160 154 154 152 158 150 148 147 148 143 145 143 145 145 142 134 116 107 110 119 109 106 93 87 100 89 79 104 107 110 118 99 53 9 26 15 2 18 357 4
157 142 144 149 159 144 122 151 163 167 162 156 160 156 156 167 174 159 154 151 142 143 119 93 94 86 92 86 72 86 100 103 105 80 93 87 60 49 23 354 20 7 48
141 148 155 149 139 133 131 102 40 90 146 142 144 153 159 147 146 157 151 139 134 141 98 137 132 141 148 143 128 103 72 125 120 117 97 103 100 76 62 21 30 36 44
147 145 136 141 147 150 152 151 136 51 57 85 137 140 147 153 150 159 150 141 143 126 131 161 145 158 174 161 151 136 149 174 137 132 126 123 113 70 59 58 49 33 35
135 143 155 156 163 152 162 158 157 155 154 140 26 145 145 150 154 152 136 122 141 88 151 160 167 168 170 162 160 140 138 131 123 142 132 138 118 109 65 58 64 81 38
139 154 151 150 164 158 156 158 159 163 157 145 119 74 104 137 145 150 159 164 172 176 166 176 165 166 181 167 163 156 143 145 148 146 145 142 137 119 95 74 80 79 90
161 165 161 158 159 166 161 163 163 162 157 160 166 165 150 137 158 168 183 166 167 175 171 184 174 163 172 172 164 153 140 143 142 150 153 152 148 134 127 113 81 99 94
176 181 178 168 168 174 169 169 170 169 164 168 175 167 172 169 167 176 182 178 177 179 176 177 170 167 173 174 166 161 158 156 156 156 158 160 156 135 129 119 112 106 113
184 186 203 189 174 169 180 176 173 173 168 169 166 162 174 174 173 178 187 181 183 180 172 172 172 173 179 179 178 167 164 160 158 166 169 166 161 147 143 136 130 125 111
279 191 202 205 193 182 172 167 172 175 174 171 165 162 182 181 177 182 188 179 178 173 165 170 167 167 175 186 182 173 173 177 177 165 163 170 169 164 160 157 157 142 144
347 289 218 200 191 183 186 176 179 177 175 171 172 172 182 187 182 183 187 174 171 171 170 176 180 178 181 187 195 190 189 184 177 171 163 165 174 169 155 156 159 151 142
353 328 314 230 209 198 190 178 183 180 179 176 178 176 180 184 179 179 181 175 178 172 177 180 185 182 179 186 189 191 194 188 181 183 171 162 160 171 165 162 156 145 135
323 333 303 284 230 223 209 181 188 185 183 183 183 180 178 183 182 179 178 176 180 186 177 182 189 182 183 190 192 195 195 194 191 184 177 169 159 160 170 165 165 164 153